Location: ??????
(55.2000°N, 38.3000°E)
Time: 08:26:49
(UTC+00:00)

Cosmos 2034 Rocket - Pass Details

Date: 15 November 2025
Orbit: 958 x 998 km, 82.9° (Epoch: 14 December)

Event Time Altitude Azimuth Distance (km) Brightness Sun altitude
Rises 03:00:49 0° 348° (NNW) 3,711 6.8 -16.6°
Reaches altitude 10° 03:03:21 10° 351° (N) 2,764 6.2 -16.2°
Maximum altitude 03:09:43 74° 77° (ENE) 1,037 4.3 -15.4°
Drops below altitude 10° 03:16:04 10° 163° (SSE) 2,763 6.8 -14.5°
Sets 03:18:36 0° 165° (SSE) 3,710 7.4 -14.1°
